Guymon, OK

3:25 PM CST on December 03, 2016 (GMT -0600)
Guymon Municipal

Weather History for KGUY - June, 2014

Change the Weather History Date:

Thursday, June 26, 2014

  Actual Average Record
Temperature  
Mean Temperature 81 °F 77 °F  
Max Temperature 92 °F 91 °F 113 °F (2011)
Min Temperature 69 °F 63 °F 55 °F (2003)
Degree Days  
Heating Degree Days 0 0  
Month to date heating degree days 5 6  
Since 1 June heating degree days 5 6  
Since 1 July heating degree days 4537 4455  
Cooling Degree Days 16 12  
Month to date cooling degree days 278 230  
Year to date cooling degree days 456 338  
Since 1 June cooling degree days 278 230  
Growing Degree Days 30 (Base 50)    
Moisture  
Dew Point 64 °F    
Average Humidity 64    
Maximum Humidity 90    
Minimum Humidity 38    
Precipitation  
Precipitation 0.00 in 0.09 in 0.55 in (2004)
Month to date precipitation 2.08 2.74  
Year to date precipitation 5.47 8.99  
Snow  
Snow 0.00 in - - ()
Month to date snowfall 0.0  
Since 1 June snowfall 0.0  
Since 1 July snowfall 16.2  
Snow Depth 0.00 in    
Sea Level Pressure  
Sea Level Pressure 29.69 in    
Wind  
Wind Speed 17 mph (South)    
Max Wind Speed 30 mph    
Max Gust Speed 38 mph    
Visibility 10 miles    
Events      
T = Trace of Precipitation, MM = Missing Value Source: NWS Daily Summary

Daily Weather History Graph

Daily Weather History Graph

Search for Another Location

Airport or City:

Trip Planner

Search our weather history database for the weather conditions in past years. The results will help you decide how hot, cold, wet, or windy it might be!

Date:

Astronomy

Jun. 26, 2014 Rise Set
Actual Time 6:29 AM CDT 9:08 PM CDT
Civil Twilight 5:58 AM CDT 9:39 PM CDT
Nautical Twilight 5:20 AM CDT 10:17 PM CDT
Astronomical Twilight 4:37 AM CDT 11:00 PM CDT
Moon 6:07 AM CDT (6/26) 8:33 PM CDT (6/26)
Length of Visible Light 15h 40m
Length of Day
14h 39m
Waning Crescent, 0% of the Moon is Illuminated
Jun 26
Waning Crescent
Jun 27
New
Jul 5
First Quarter
Jul 12
Full
Jul 18
Last Quarter

Hourly Weather History & Observations

Time (CDT) Temp. Heat Index Dew Point Humidity Pressure Visibility Wind Dir Wind Speed Gust Speed Precip Events Conditions
12:53 AM 73.0 °F - 66.0 °F 79% 29.84 in 10.0 mi South 13.8 mph - N/A   Clear
1:53 AM 73.0 °F - 66.0 °F 79% 29.83 in 10.0 mi South 15.0 mph - N/A   Partly Cloudy
2:53 AM 73.0 °F - 66.0 °F 79% 29.81 in 10.0 mi South 17.3 mph - N/A   Partly Cloudy
3:53 AM 73.0 °F - 66.0 °F 79% 29.76 in 10.0 mi South 16.1 mph 26.5 mph N/A   Clear
4:53 AM 72.0 °F - 66.0 °F 81% 29.75 in 10.0 mi South 11.5 mph - N/A   Clear
5:53 AM 71.1 °F - 66.0 °F 84% 29.76 in 10.0 mi SSW 12.7 mph - N/A   Clear
6:53 AM 70.0 °F - 66.0 °F 87% 29.75 in 10.0 mi SSW 13.8 mph - N/A   Clear
7:53 AM 70.0 °F - 66.0 °F 87% 29.80 in 10.0 mi South 3.5 mph - N/A   Clear
8:53 AM 73.0 °F - 66.0 °F 79% 29.80 in 10.0 mi South 8.1 mph - N/A   Clear
9:53 AM 79.0 °F - 66.0 °F 64% 29.79 in 10.0 mi South 11.5 mph - N/A   Clear
10:53 AM 80.1 °F 81.2 °F 62.1 °F 54% 29.76 in 10.0 mi SSW 12.7 mph - N/A   Clear
11:53 AM 86.0 °F 86.3 °F 62.1 °F 44% 29.73 in 10.0 mi South 19.6 mph 27.6 mph N/A   Clear
12:53 PM 88.0 °F 88.7 °F 63.0 °F 43% 29.70 in 10.0 mi South 19.6 mph 29.9 mph N/A   Clear
1:53 PM 88.0 °F 89.6 °F 64.9 °F 46% 29.69 in 10.0 mi South 19.6 mph 28.8 mph N/A   Clear
2:53 PM 90.0 °F 91.7 °F 64.9 °F 43% 29.65 in 10.0 mi South 18.4 mph 29.9 mph N/A   Clear
3:53 PM 91.9 °F 92.5 °F 62.1 °F 37% 29.62 in 10.0 mi South 23.0 mph 31.1 mph N/A   Clear
4:53 PM 91.9 °F 92.9 °F 63.0 °F 38% 29.59 in 10.0 mi South 21.9 mph 36.8 mph N/A   Clear
5:53 PM 91.0 °F 92.6 °F 64.0 °F 41% 29.58 in 10.0 mi South 20.7 mph 31.1 mph N/A   Clear
6:53 PM 90.0 °F 91.3 °F 64.0 °F 42% 29.55 in 10.0 mi South 23.0 mph 34.5 mph N/A   Clear
7:53 PM 88.0 °F 88.7 °F 63.0 °F 43% 29.55 in 10.0 mi South 19.6 mph 32.2 mph N/A   Clear
8:53 PM 84.9 °F 85.4 °F 62.1 °F 46% 29.56 in 10.0 mi South 18.4 mph - N/A   Clear
9:53 PM 81.0 °F 82.5 °F 64.0 °F 56% 29.56 in 10.0 mi SSE 15.0 mph 23.0 mph N/A   Clear
10:53 PM 80.1 °F 81.7 °F 64.0 °F 58% 29.58 in 10.0 mi SSE 18.4 mph 26.5 mph N/A   Clear
11:53 PM 77.0 °F - 64.0 °F 64% 29.57 in 10.0 mi SSE 17.3 mph 26.5 mph N/A   Clear